Regional Weather Roundup
Issued by NWS Kansas City/Pleasant Hill, MO

Home | Current Version | Previous Version | Text Only | Print | Product List | Glossary On
Versions: 1 2 3 4 5 6 7 8 9 10 11 12 13 14 15 16 17 18 19 20 21 22 23 24 25 26 27 28 29 30 31 32 33 34 35 36 37 38 39 40 41 42 43 44 45 46 47 48 49 50
000
ASUS43 KEAX 031211
RWREAX

WEATHER ROUNDUP FOR EASTERN KANSAS AND NORTHWEST MISSOURI
NATIONAL WEATHER SERVICE KANSAS CITY/PLEASANT HILL MO
600 AM CST TUE MAR 03 2015

KSZ040-057-103>105-MOZ028-029-037-043-031300-
...KANSAS CITY METROPOLITAN AREA...

CITY           SKY/WX    TMP DP  RH WIND       PRES   REMARKS
K.C. INTL      DRIZZLE   36  35  96 SW20G28   29.74S WCI  25
6HR MIN TEMP:  33; 6HR MAX TEMP:  36; 6HR PCP: TRACE;

K.C. DOWNTOWN  CLOUDY    38  35  89 S15G25    29.75F WCI  29
6HR MIN TEMP:  34; 6HR MAX TEMP:  38;

LEES SUMMIT    CLOUDY    35  34  96 S16G24    29.74F FOG     WCI  25
6HR MIN TEMP:  33; 6HR MAX TEMP:  35;

OLATHE - IXD   CLOUDY    36  35  96 S21G30    29.72F FOG     WCI  25
6HR MIN TEMP:  32; 6HR MAX TEMP:  36;

OLATHE - OJC   CLOUDY    36  35  96 S17G25    29.72F FOG     WCI  26
6HR MIN TEMP:  32; 6HR MAX TEMP:  36;

LAWRENCE       CLOUDY    37  35  92 W7G17     29.77R WCI  32

$$

MOZ001>008-011>017-020>025-030>033-038>040-044>046-053-054-031300-
...NORTHERN AND CENTRAL MISSOURI...

CITY           SKY/WX    TMP DP  RH WIND       PRES   REMARKS
ST. JOSEPH     CLOUDY    35  34  96 S12       29.73F FOG     WCI  27
6HR MIN TEMP:  33; 6HR MAX TEMP:  35;

MOSBY          CLOUDY    36  34  93 S7        29.76R FOG     WCI  30
WARRENSBURG    CLOUDY    36  32  87 S15G25    29.78R WCI  26
WHITEMAN AFB   CLOUDY    35  33  91 S22       29.77F WCI  24
6HR MIN TEMP:  34; 6HR MAX TEMP:  36;

CLINTON        CLOUDY    37  34  87 S12       29.82F WCI  30
SEDALIA        CLOUDY    37  32  82 S15G28    29.80F WCI  28
6HR MIN TEMP:  35; 6HR MAX TEMP:  36;

WARSAW         NOT AVBL
MARSHALL       CLOUDY    36  32  87 SE10      29.83F WCI  28
CHILLICOTHE      N/A     34  32  92 S12       29.76F WCI  25
6HR MIN TEMP:  32; 6HR MAX TEMP:  34;

MOBERLY        CLOUDY    32  27  80 S12       29.82F WCI  23
KIRKSVILLE     FRZ RAIN  30  30 100 S14       29.78F FOG     WCI  19
6HR MIN TEMP:  29; 6HR MAX TEMP:  30; 6HR PCP: TRACE;


$$

MOZ041-047>049-056>058-063>065-088>090-097-031300-
...EASTERN AND SOUTHERN MISSOURI...

CITY           SKY/WX    TMP DP  RH WIND       PRES   REMARKS
ST. LOUIS INTL LGT RAIN  35  25  66 SE10      29.94F WCI  27
6HR MIN TEMP:  32; 6HR MAX TEMP:  35; 6HR PCP: TRACE;

SPIRIT OF STL  LGT RAIN  32  27  81 E5        29.92F WCI  27
COLUMBIA       CLOUDY    34  31  88 S13       29.84F WCI  25
JEFFERSON CITY CLOUDY    35  32  88 SE8       29.88F WCI  29
MEXICO         CLOUDY    32  30  93 SE10      29.85F WCI  24
ROLLA          CLOUDY    34  32  92 S9        29.88F FOG     WCI  27
LEBANON        CLOUDY    34  32  93 S6        29.89F FOG     WCI  29
OSAGE BEACH    CLOUDY    34  30  86 SE8       29.88F WCI  27
SPRINGFIELD    CLOUDY    34  33  96 S9        29.89R FOG     WCI  27
NEVADA         CLOUDY    36  34  93 S21G30    29.82F WCI  24
JOPLIN         CLOUDY    38  37  97 S16G24    29.87F FOG     WCI  29
WEST PLAINS    FOG       33  31  92 S7        29.95F VSB 3/4 WCI  27

$$

IAZ060-094-KSZ022-034>040-054-083-096-NEZ052-066-093-031300-
...KANSAS...SOUTHEAST NEBRASKA AND IOWA...

CITY           SKY/WX    TMP DP  RH WIND       PRES   REMARKS
TOPEKA         CLOUDY    38  35  89 SW10      29.74R WCI  31
6HR MIN TEMP:  34; 6HR MAX TEMP:  38;

MANHATTAN      CLOUDY    39  35  86 SW18G24   29.69F WCI  30
EMPORIA        CLOUDY    37  36  96 S26G38    29.69F FOG     WCI  25
CHANUTE        FOG       37  37 100 S18       29.82S VSB 3/4 WCI  27
WICHITA        CLOUDY    36  34  92 S20G31    29.76R WCI  25
OMAHA          FRZ DRZL  31  30  96 S8        29.66F FOG     WCI  23
LINCOLN        FOG       32  32 100 S3        29.66S VSB 1/2
FALLS CITY     CLOUDY    35  33  92 S12       29.69F FOG     WCI  27
LAMONI         CLOUDY    31  30  96 S15       29.71F FOG     WCI  20
DES MOINES     FRZ DRZL  31  26  82 S12       29.71F WCI  22

$$



USA.gov is the U.S. government's official web portal to all federal, state and local government web resources and services.